Tracking 22454 objects as of 5-Mar-2021
HD Live streaming from Space Station
objects crossing your sky now

DELTA 1 DEB

Track DELTA 1 DEB now!
10-day predictions


NORAD ID: 26823
Int'l Code: 1975-052KD
Perigee: 1,041.8 km
Apogee: 1,114.0 km
Inclination: 100.1 °
Period: 106.6 minutes
Semi major axis: 7448 km
RCS: 0.0191 m2 (small)
Launch date: June 12, 1975
Source: United States (US)
Launch site: AIR FORCE WESTERN TEST RANGE (AFWTR)

Note: This is SATELLITE DEBRIS
aabbcc
Your satellite tracking list
Your tracking list is empty




NASA's NSSDC Master Catalog

Two Line Element Set (TLE):
1 26823U 75052KD  21063.76906483  .00000476  00000-0  80972-3 0  9991
2 26823 100.0954 252.6756 0048463 210.7442 281.2415 13.50401484446221
Source of the keplerian elements: AFSPC